This is the latest recevied weather packets stored in our database for station/object WA1NHP. If no packets are shown the sender has not sent any weather packets the latest 10 day(s).
| Time | Temp. | Humidity | Pressure | Rain* | Wind** | Luminosity | Snow |
|---|---|---|---|---|---|---|---|
| 1777736043 | 8.89° C | 88% | 1023.9 hPa | 0 mm | - | 95 W/m² | - |
| 1777735444 | 9.44° C | 85% | 1023.9 hPa | 0 mm | - | 155 W/m² | - |
| 1777734844 | 10° C | 88% | 1023.9 hPa | 0 mm | - | 1345 W/m² | - |
| 1777734244 | 8.89° C | 90% | 1023.9 hPa | 0 mm | - | 482 W/m² | - |
| 1777733644 | 8.33° C | 89% | 1023.9 hPa | 0 mm | - | 162 W/m² | - |
| 1777733043 | 8.33° C | 90% | 1023.9 hPa | 0 mm | - | 232 W/m² | - |
| 1777732443 | 8.89° C | 92% | 1023.9 hPa | 0 mm | - | 274 W/m² | - |
| 1777731844 | 8.89° C | 95% | 1023.9 hPa | 0 mm | - | 406 W/m² | - |
| 1777731245 | 8.33° C | 96% | 1023.9 hPa | 0 mm | - | 376 W/m² | - |
| 1777730644 | 7.78° C | 96% | 1023.9 hPa | 0 mm | - | 294 W/m² | - |
| 1777730044 | 7.22° C | 96% | 1023.9 hPa | 0 mm | - | 213 W/m² | - |
| 1777729444 | 7.22° C | 96% | 1023.9 hPa | 0 mm | - | 181 W/m² | - |
| 1777728844 | 7.22° C | 96% | 1023.9 hPa | 0 mm | - | 65 W/m² | - |
| 1777728244 | 7.22° C | 96% | 1023.9 hPa | 0 mm | - | 76 W/m² | - |
| 1777727643 | 6.67° C | 96% | 1023.9 hPa | 0 mm | - | 65 W/m² | - |
| 1777727044 | 6.67° C | 97% | 1023.9 hPa | 0 mm | - | 79 W/m² | - |
| 1777726444 | 6.67° C | 96% | 1023.9 hPa | 0.25 mm | - | 49 W/m² | - |
| 1777725844 | 6.67° C | 96% | 1023.9 hPa | 0.25 mm | - | 130 W/m² | - |
| 1777725244 | 6.11° C | 96% | 1023.9 hPa | 0.25 mm | - | 125 W/m² | - |
| 1777724644 | 6.11° C | 96% | 1023.9 hPa | 0.25 mm | - | 109 W/m² | - |
| 1777724044 | 6.11° C | 96% | 1023.9 hPa | 0.25 mm | - | 81 W/m² | - |
| 1777723444 | 6.11° C | 96% | 1023.9 hPa | 0.51 mm | - | 56 W/m² | - |
| 1777722844 | 6.11° C | 96% | 1023.9 hPa | 0.76 mm | - | 26 W/m² | - |
| 1777722244 | 5.56° C | 96% | 1023.9 hPa | 0.76 mm | - | 21 W/m² | - |
| 1777721644 | 6.11° C | 96% | 1023.9 hPa | 0.76 mm | - | 21 W/m² | - |
* Rain latest hour (hover to see other rain measurements)
** Current wind speed in m/s (hover to see current wind gust speed)